Location: Caltech
(34.1382°N, 118.1253°W)
Time: 12:12:12
(UTC-07:00)

PCSat - Visible Passes

Search period start: 26 March 2015 00:00
Search period end: 05 April 2015 00:00
Orbit: 786 x 795 km, 67.1° (Epoch: 25 March)

Date Brightness Start Highest point End Pass type
(mag) Time Alt. Az. Time Alt. Az. Time Alt. Az.
01 Apr 12.3 22:38:31 10° N 22:38:47 11° N 22:38:47 11° N visible
02 Apr 12.1 22:08:28 10° NNE 22:08:58 11° NNE 22:08:58 11° NNE visible
03 Apr 12.0 21:39:00 10° NNE 21:39:10 10° NNE 21:39:10 10° NNE visible
03 Apr 12.4 23:19:28 10° NNW 23:19:54 12° NNW 23:19:54 12° NNW visible
04 Apr 12.0 22:48:50 10° NNW 22:50:08 17° NNW 22:50:08 17° NNW visible
